CARTOSAT-2A

Last updated on Mon Sep 21 2026 00:02:45 GMT+0000 (Coordinated Universal Time)

1 32783U 08021A 26263.62358465 .00000379 00000+0 57617-4 0 9990 2 32783 97.7544 309.0322 0012255 154.5055 205.6764 14.79332405992918
UTC large
Height (km)
Speed (km/s)
/
Latitude / Longitude
Inclination (degrees)
Orbital Period (minutes)
Azimuth
Elevation
Range (km)
Doppler Factor

Next 0 passes for location: London (51.5072 / 0.1276)

No passes found over London.
CARTOSAT-2A